Time,TemperatureF,DewpointF,PressureIn,WindDirection,WindDirectionDegrees,WindSpeedMPH,WindSpeedGustMPH,Humidity,HourlyPrecipIn,Conditions,Clouds,dailyrainin,SoftwareType,DateUTC
2013-02-02 00:04:00,19.5,3.9,30.02,ESE,114,0.0,4.0,50,0.00,,,0.00,Wunderground v.1.15,2013-02-02 05:04:00,
2013-02-02 00:09:00,19.5,2.5,30.02,ESE,120,1.0,1.0,47,0.00,,,0.00,Wunderground v.1.15,2013-02-02 05:09:00,
2013-02-02 00:14:00,19.5,2.5,30.02,SSE,147,0.0,4.0,47,0.00,,,0.00,Wunderground v.1.15,2013-02-02 05:14:00,
2013-02-02 00:24:00,19.5,2.5,30.02,ENE,75,0.0,4.0,47,0.00,,,0.00,Wunderground v.1.15,2013-02-02 05:24:00,
2013-02-02 00:29:00,19.5,2.0,30.02,South,188,0.0,4.0,46,0.00,,,0.00,Wunderground v.1.15,2013-02-02 05:29:00,
2013-02-02 00:34:00,19.4,2.0,30.02,SE,127,0.0,4.0,46,0.00,,,0.00,Wunderground v.1.15,2013-02-02 05:34:00,
2013-02-02 00:39:00,19.4,2.0,30.02,SSE,152,0.0,4.0,46,0.00,,,0.00,Wunderground v.1.15,2013-02-02 05:39:00,
2013-02-02 00:45:00,19.4,2.4,30.03,SSW,193,0.0,4.0,47,0.00,,,0.00,Wunderground v.1.15,2013-02-02 05:45:00,
2013-02-02 00:50:00,19.2,2.2,30.03,SE,133,0.0,4.0,47,0.00,,,0.00,Wunderground v.1.15,2013-02-02 05:50:00,
2013-02-02 01:00:00,19.1,2.6,30.04,SSE,158,0.0,0.0,48,0.00,,,0.00,Wunderground v.1.15,2013-02-02 06:00:00,
2013-02-02 01:10:00,19.1,2.6,30.04,SSE,155,0.0,0.0,48,0.00,,,0.00,Wunderground v.1.15,2013-02-02 06:10:00,
2013-02-02 01:15:00,18.9,3.3,30.04,SSE,155,0.0,0.0,50,0.00,,,0.00,Wunderground v.1.15,2013-02-02 06:15:00,
2013-02-02 01:20:00,18.8,3.2,30.04,SSE,155,0.0,0.0,50,0.00,,,0.00,Wunderground v.1.15,2013-02-02 06:20:00,
2013-02-02 01:30:00,18.6,3.4,30.05,South,189,0.0,0.0,51,0.00,,,0.00,Wunderground v.1.15,2013-02-02 06:30:00,
2013-02-02 01:35:00,18.6,3.4,30.05,South,189,0.0,0.0,51,0.00,,,0.00,Wunderground v.1.15,2013-02-02 06:35:00,
2013-02-02 01:40:00,18.6,3.4,30.05,SW,224,0.0,0.0,51,0.00,,,0.00,Wunderground v.1.15,2013-02-02 06:40:00,
2013-02-02 01:49:00,18.4,3.3,30.06,SW,223,0.0,0.0,51,0.00,,,0.00,Wunderground v.1.15,2013-02-02 06:49:00,
2013-02-02 01:54:00,18.4,3.7,30.06,SW,223,0.0,0.0,52,0.00,,,0.00,Wunderground v.1.15,2013-02-02 06:54:00,
2013-02-02 02:04:00,18.3,4.0,30.07,SSE,167,0.0,1.0,53,0.00,,,0.00,Wunderground v.1.15,2013-02-02 07:04:00,
2013-02-02 02:09:00,18.3,4.4,30.07,SSE,167,0.0,1.0,54,0.00,,,0.00,Wunderground v.1.15,2013-02-02 07:09:00,
2013-02-02 02:14:00,18.1,3.8,30.07,SSW,205,0.0,1.0,53,0.00,,,0.00,Wunderground v.1.15,2013-02-02 07:14:00,
2013-02-02 02:19:00,18.1,4.2,30.07,South,182,0.0,1.0,54,0.00,,,0.00,Wunderground v.1.15,2013-02-02 07:19:00,
2013-02-02 02:24:00,18.1,4.2,30.07,South,182,0.0,1.0,54,0.00,,,0.00,Wunderground v.1.15,2013-02-02 07:24:00,
2013-02-02 02:29:00,18.0,4.1,30.07,South,182,0.0,1.0,54,0.00,,,0.00,Wunderground v.1.15,2013-02-02 07:29:00,
2013-02-02 02:39:00,18.0,3.7,30.07,East,97,0.0,1.0,53,0.00,,,0.00,Wunderground v.1.15,2013-02-02 07:39:00,
2013-02-02 02:44:00,18.0,3.7,30.08,WSW,241,0.0,1.0,53,0.00,,,0.00,Wunderground v.1.15,2013-02-02 07:44:00,
2013-02-02 02:49:00,18.0,3.7,30.08,WSW,241,0.0,1.0,53,0.00,,,0.00,Wunderground v.1.15,2013-02-02 07:49:00,
2013-02-02 02:54:00,17.8,3.1,30.08,SSE,152,0.0,1.0,52,0.00,,,0.00,Wunderground v.1.15,2013-02-02 07:54:00,
2013-02-02 02:59:00,17.8,3.9,30.07,SSE,151,0.0,1.0,54,0.00,,,0.00,Wunderground v.1.15,2013-02-02 07:59:00,
2013-02-02 03:09:00,17.7,4.2,30.07,SSE,151,0.0,1.0,55,0.00,,,0.00,Wunderground v.1.15,2013-02-02 08:09:00,
2013-02-02 03:15:00,17.7,4.2,30.08,SSE,151,0.0,1.0,55,0.00,,,0.00,Wunderground v.1.15,2013-02-02 08:15:00,
2013-02-02 03:20:00,17.5,4.1,30.08,SSE,151,0.0,1.0,55,0.00,,,0.00,Wunderground v.1.15,2013-02-02 08:20:00,
2013-02-02 03:25:00,17.5,4.8,30.08,SSE,150,0.0,1.0,57,0.00,,,0.00,Wunderground v.1.15,2013-02-02 08:25:00,
2013-02-02 03:30:00,17.3,4.7,30.08,SSE,150,0.0,1.0,57,0.00,,,0.00,Wunderground v.1.15,2013-02-02 08:30:00,
2013-02-02 03:35:00,17.3,4.7,30.08,SSE,151,0.0,1.0,57,0.00,,,0.00,Wunderground v.1.15,2013-02-02 08:35:00,
2013-02-02 03:40:00,17.3,4.7,30.08,SSE,151,0.0,1.0,57,0.00,,,0.00,Wunderground v.1.15,2013-02-02 08:40:00,
2013-02-02 03:50:00,17.2,4.6,30.09,SW,232,0.0,1.0,57,0.00,,,0.00,Wunderground v.1.15,2013-02-02 08:50:00,
2013-02-02 03:55:00,17.2,4.9,30.09,SW,232,0.0,1.0,58,0.00,,,0.00,Wunderground v.1.15,2013-02-02 08:55:00,
2013-02-02 04:00:00,17.2,4.6,30.09,SW,234,0.0,1.0,57,0.00,,,0.00,Wunderground v.1.15,2013-02-02 09:00:00,
2013-02-02 04:09:00,17.2,4.6,30.09,SW,234,0.0,1.0,57,0.00,,,0.00,Wunderground v.1.15,2013-02-02 09:09:00,
2013-02-02 04:14:00,17.0,4.4,30.10,SW,234,0.0,1.0,57,0.00,,,0.00,Wunderground v.1.15,2013-02-02 09:14:00,
2013-02-02 04:24:00,16.9,4.7,30.10,SW,234,0.0,1.0,58,0.00,,,0.00,Wunderground v.1.15,2013-02-02 09:24:00,
2013-02-02 04:29:00,16.9,4.7,30.10,SW,234,0.0,1.0,58,0.00,,,0.00,Wunderground v.1.15,2013-02-02 09:29:00,
2013-02-02 04:34:00,16.7,4.5,30.10,SW,234,0.0,1.0,58,0.00,,,0.00,Wunderground v.1.15,2013-02-02 09:34:00,
2013-02-02 04:39:00,16.7,4.5,30.10,SW,234,0.0,1.0,58,0.00,,,0.00,Wunderground v.1.15,2013-02-02 09:39:00,
2013-02-02 04:44:00,16.5,4.3,30.11,SW,234,0.0,1.0,58,0.00,,,0.00,Wunderground v.1.15,2013-02-02 09:44:00,
2013-02-02 04:54:00,16.4,4.2,30.11,SW,234,0.0,1.0,58,0.00,,,0.00,Wunderground v.1.15,2013-02-02 09:54:00,
2013-02-02 04:59:00,16.2,4.4,30.11,SW,234,0.0,1.0,59,0.00,,,0.00,Wunderground v.1.15,2013-02-02 09:59:00,
2013-02-02 05:04:00,16.2,4.4,30.11,SW,234,0.0,1.0,59,0.00,,,0.00,Wunderground v.1.15,2013-02-02 10:04:00,
2013-02-02 05:09:00,16.1,3.9,30.11,SW,234,0.0,1.0,58,0.00,,,0.00,Wunderground v.1.15,2013-02-02 10:09:00,
2013-02-02 05:14:00,16.1,3.9,30.12,SW,234,0.0,1.0,58,0.00,,,0.00,Wunderground v.1.15,2013-02-02 10:14:00,
2013-02-02 05:19:00,15.9,4.1,30.12,SW,234,0.0,1.0,59,0.00,,,0.00,Wunderground v.1.15,2013-02-02 10:19:00,
2013-02-02 05:29:00,15.9,3.7,30.13,SW,234,0.0,1.0,58,0.00,,,0.00,Wunderground v.1.15,2013-02-02 10:29:00,
2013-02-02 05:34:00,15.7,3.5,30.13,SW,234,0.0,1.0,58,0.00,,,0.00,Wunderground v.1.15,2013-02-02 10:34:00,
2013-02-02 05:40:00,15.7,3.1,30.13,SW,234,0.0,1.0,57,0.00,,,0.00,Wunderground v.1.15,2013-02-02 10:40:00,
2013-02-02 05:45:00,15.7,3.1,30.13,SW,234,0.0,1.0,57,0.00,,,0.00,Wunderground v.1.15,2013-02-02 10:45:00,
2013-02-02 05:50:00,15.6,3.4,30.13,SW,234,0.0,1.0,58,0.00,,,0.00,Wunderground v.1.15,2013-02-02 10:50:00,
2013-02-02 06:00:00,15.6,3.8,30.14,SW,234,0.0,1.0,59,0.00,,,0.00,Wunderground v.1.15,2013-02-02 11:00:00,
2013-02-02 06:05:00,15.4,3.2,30.14,SW,234,0.0,1.0,58,0.00,,,0.00,Wunderground v.1.15,2013-02-02 11:05:00,
2013-02-02 06:10:00,15.4,3.2,30.14,SW,234,0.0,1.0,58,0.00,,,0.00,Wunderground v.1.15,2013-02-02 11:10:00,
2013-02-02 06:15:00,15.4,3.6,30.15,SW,234,0.0,1.0,59,0.00,,,0.00,Wunderground v.1.15,2013-02-02 11:15:00,
2013-02-02 06:24:00,15.2,3.4,30.15,SW,234,0.0,1.0,59,0.00,,,0.00,Wunderground v.1.15,2013-02-02 11:24:00,
2013-02-02 06:30:00,15.1,3.3,30.15,SW,234,0.0,1.0,59,0.00,,,0.00,Wunderground v.1.15,2013-02-02 11:30:00,
2013-02-02 06:39:00,14.9,3.5,30.15,SW,234,0.0,1.0,60,0.00,,,0.00,Wunderground v.1.15,2013-02-02 11:39:00,
2013-02-02 06:44:00,14.8,3.4,30.15,SW,234,0.0,1.0,60,0.00,,,0.00,Wunderground v.1.15,2013-02-02 11:44:00,
2013-02-02 06:49:00,14.8,3.4,30.15,SW,234,0.0,1.0,60,0.00,,,0.00,Wunderground v.1.15,2013-02-02 11:49:00,
2013-02-02 06:54:00,14.6,3.2,30.15,SW,234,0.0,1.0,60,0.00,,,0.00,Wunderground v.1.15,2013-02-02 11:54:00,
2013-02-02 06:59:00,14.4,3.4,30.16,SW,234,0.0,1.0,61,0.00,,,0.00,Wunderground v.1.15,2013-02-02 11:59:00,
2013-02-02 07:09:00,14.1,3.5,30.16,SW,234,0.0,1.0,62,0.00,,,0.00,Wunderground v.1.15,2013-02-02 12:09:00,
2013-02-02 07:14:00,14.0,3.7,30.17,SW,234,0.0,1.0,63,0.00,,,0.00,Wunderground v.1.15,2013-02-02 12:14:00,
2013-02-02 07:19:00,14.0,3.7,30.17,SW,234,0.0,1.0,63,0.00,,,0.00,Wunderground v.1.15,2013-02-02 12:19:00,
2013-02-02 07:24:00,13.8,3.9,30.17,SW,234,0.0,1.0,64,0.00,,,0.00,Wunderground v.1.15,2013-02-02 12:24:00,
2013-02-02 07:29:00,13.8,3.9,30.18,SW,234,0.0,1.0,64,0.00,,,0.00,Wunderground v.1.15,2013-02-02 12:29:00,
2013-02-02 07:39:00,13.6,4.3,30.18,SW,234,0.0,1.0,66,0.00,,,0.00,Wunderground v.1.15,2013-02-02 12:39:00,
2013-02-02 07:44:00,13.6,4.3,30.17,SW,234,0.0,1.0,66,0.00,,,0.00,Wunderground v.1.15,2013-02-02 12:44:00,
2013-02-02 07:49:00,13.6,4.7,30.17,SW,234,0.0,1.0,67,0.00,,,0.00,Wunderground v.1.15,2013-02-02 12:49:00,
2013-02-02 07:54:00,13.8,4.9,30.17,SW,234,0.0,1.0,67,0.00,,,0.00,Wunderground v.1.15,2013-02-02 12:54:00,
2013-02-02 08:00:00,14.0,4.7,30.18,SW,234,0.0,1.0,66,0.00,,,0.00,Wunderground v.1.15,2013-02-02 13:00:00,
2013-02-02 08:05:00,14.1,4.5,30.18,SW,234,0.0,1.0,65,0.00,,,0.00,Wunderground v.1.15,2013-02-02 13:05:00,
2013-02-02 08:15:00,14.6,5.0,30.18,SW,234,0.0,1.0,65,0.00,,,0.00,Wunderground v.1.15,2013-02-02 13:15:00,
2013-02-02 08:20:00,14.8,5.2,30.18,SW,234,0.0,1.0,65,0.00,,,0.00,Wunderground v.1.15,2013-02-02 13:20:00,
2013-02-02 08:25:00,14.9,5.2,30.18,SW,234,0.0,1.0,65,0.00,,,0.00,Wunderground v.1.15,2013-02-02 13:25:00,
2013-02-02 08:30:00,15.2,5.5,30.19,SW,234,0.0,1.0,65,0.00,,,0.00,Wunderground v.1.15,2013-02-02 13:30:00,
2013-02-02 08:39:00,16.9,4.7,30.19,SW,233,0.0,1.0,58,0.00,,,0.00,Wunderground v.1.15,2013-02-02 13:39:00,
2013-02-02 08:45:00,17.3,4.3,30.19,SW,223,0.0,1.0,56,0.00,,,0.00,Wunderground v.1.15,2013-02-02 13:45:00,
2013-02-02 08:50:00,17.3,3.9,30.19,West,264,0.0,1.0,55,0.00,,,0.00,Wunderground v.1.15,2013-02-02 13:50:00,
2013-02-02 08:59:00,18.1,3.4,30.19,SSW,209,0.0,1.0,52,0.00,,,0.00,Wunderground v.1.15,2013-02-02 13:59:00,
2013-02-02 09:04:00,18.4,4.1,30.19,SSW,209,0.0,1.0,53,0.00,,,0.00,Wunderground v.1.15,2013-02-02 14:04:00,
2013-02-02 09:09:00,18.9,3.3,30.19,West,278,0.0,1.0,50,0.00,,,0.00,Wunderground v.1.15,2013-02-02 14:09:00,
2013-02-02 09:19:00,19.1,2.1,30.18,WNW,284,0.0,1.0,47,0.00,,,0.00,Wunderground v.1.15,2013-02-02 14:19:00,
2013-02-02 09:24:00,19.1,1.7,30.18,West,280,0.0,1.0,46,0.00,,,0.00,Wunderground v.1.15,2013-02-02 14:24:00,
2013-02-02 09:29:00,20.0,4.3,30.18,West,280,0.0,1.0,50,0.00,,,0.00,Wunderground v.1.15,2013-02-02 14:29:00,
2013-02-02 09:34:00,20.3,3.2,30.18,WNW,301,0.0,1.0,47,0.00,,,0.00,Wunderground v.1.15,2013-02-02 14:34:00,
2013-02-02 09:40:00,20.5,3.4,30.18,WSW,246,0.0,1.0,47,0.00,,,0.00,Wunderground v.1.15,2013-02-02 14:40:00,
2013-02-02 09:45:00,20.8,2.8,30.18,WSW,246,0.0,1.0,45,0.00,,,0.00,Wunderground v.1.15,2013-02-02 14:45:00,
2013-02-02 09:55:00,21.0,2.5,30.18,ESE,116,0.0,1.0,44,0.00,,,0.00,Wunderground v.1.15,2013-02-02 14:55:00,
2013-02-02 10:00:00,21.0,2.0,30.18,North,0,0.0,1.0,43,0.00,,,0.00,Wunderground v.1.15,2013-02-02 15:00:00,
2013-02-02 10:05:00,21.8,4.2,30.18,SSE,154,0.0,1.0,46,0.00,,,0.00,Wunderground v.1.15,2013-02-02 15:05:00,
2013-02-02 10:10:00,21.8,2.7,30.18,West,277,0.0,1.0,43,0.00,,,0.00,Wunderground v.1.15,2013-02-02 15:10:00,
2013-02-02 10:15:00,21.8,2.2,30.18,WSW,257,1.0,1.0,42,0.00,,,0.00,Wunderground v.1.15,2013-02-02 15:15:00,
2013-02-02 10:20:00,22.1,3.5,30.18,ESE,112,1.0,1.0,44,0.00,,,0.00,Wunderground v.1.15,2013-02-02 15:20:00,
2013-02-02 10:25:00,22.1,3.5,30.18,ESE,112,0.0,1.0,44,0.00,,,0.00,Wunderground v.1.15,2013-02-02 15:25:00,
2013-02-02 10:34:00,22.1,3.0,30.17,SW,226,0.0,2.0,43,0.00,,,0.00,Wunderground v.1.15,2013-02-02 15:34:00,
2013-02-02 10:39:00,22.7,2.0,30.17,ESE,116,1.0,1.0,40,0.00,,,0.00,Wunderground v.1.15,2013-02-02 15:39:00,
2013-02-02 10:44:00,23.2,2.9,30.17,NE,49,0.0,1.0,41,0.00,,,0.00,Wunderground v.1.15,2013-02-02 15:44:00,
2013-02-02 10:49:00,23.5,3.7,30.17,East,99,0.0,1.0,42,0.00,,,0.00,Wunderground v.1.15,2013-02-02 15:49:00,
2013-02-02 10:59:00,23.3,3.6,30.16,WSW,250,0.0,1.0,42,0.00,,,0.00,Wunderground v.1.15,2013-02-02 15:59:00,
2013-02-02 11:04:00,23.6,4.8,30.16,WSW,258,0.0,1.0,44,0.00,,,0.00,Wunderground v.1.15,2013-02-02 16:04:00,
2013-02-02 11:09:00,23.8,3.0,30.16,West,267,0.0,1.0,40,0.00,,,0.00,Wunderground v.1.15,2013-02-02 16:09:00,
2013-02-02 11:14:00,24.1,3.8,30.15,WSW,256,0.0,1.0,41,0.00,,,0.00,Wunderground v.1.15,2013-02-02 16:14:00,
2013-02-02 11:19:00,24.7,4.8,30.15,WNW,285,0.0,1.0,42,0.00,,,0.00,Wunderground v.1.15,2013-02-02 16:19:00,
2013-02-02 11:24:00,24.8,4.9,30.15,NW,325,0.0,1.0,42,0.00,,,0.00,Wunderground v.1.15,2013-02-02 16:24:00,
2013-02-02 11:34:00,25.4,3.8,30.15,SSW,212,0.0,1.0,39,0.00,,,0.00,Wunderground v.1.15,2013-02-02 16:34:00,
2013-02-02 11:39:00,24.8,4.4,30.15,SSW,202,0.0,1.0,41,0.00,,,0.00,Wunderground v.1.15,2013-02-02 16:39:00,
2013-02-02 11:44:00,25.1,5.2,30.14,South,182,0.0,1.0,42,0.00,,,0.00,Wunderground v.1.15,2013-02-02 16:44:00,
2013-02-02 11:49:00,25.8,4.8,30.14,West,263,0.0,1.0,40,0.00,,,0.00,Wunderground v.1.15,2013-02-02 16:49:00,
2013-02-02 11:54:00,25.7,5.2,30.14,WSW,237,0.0,1.0,41,0.00,,,0.00,Wunderground v.1.15,2013-02-02 16:54:00,
2013-02-02 12:04:00,25.8,5.3,30.12,SE,134,1.0,1.0,41,0.00,,,0.00,Wunderground v.1.15,2013-02-02 17:04:00,
2013-02-02 12:09:00,25.7,3.6,30.12,West,271,1.0,1.0,38,0.00,,,0.00,Wunderground v.1.15,2013-02-02 17:09:00,
2013-02-02 12:14:00,26.0,3.2,30.11,West,271,0.0,1.0,37,0.00,,,0.00,Wunderground v.1.15,2013-02-02 17:14:00,
2013-02-02 12:20:00,26.6,4.9,30.11,SW,226,0.0,1.0,39,0.00,,,0.00,Wunderground v.1.15,2013-02-02 17:20:00,
2013-02-02 12:25:00,26.7,4.5,30.11,WSW,243,0.0,1.0,38,0.00,,,0.00,Wunderground v.1.15,2013-02-02 17:25:00,
2013-02-02 12:30:00,26.6,3.8,30.11,SSW,206,0.0,1.0,37,0.00,,,0.00,Wunderground v.1.15,2013-02-02 17:30:00,
2013-02-02 12:40:00,25.6,4.6,30.11,WSW,256,1.0,3.0,40,0.00,,,0.00,Wunderground v.1.15,2013-02-02 17:40:00,
2013-02-02 12:49:00,26.4,4.8,30.10,WSW,246,2.0,2.0,39,0.00,,,0.00,Wunderground v.1.15,2013-02-02 17:49:00,
2013-02-02 12:54:00,26.7,5.0,30.10,SW,227,1.0,2.0,39,0.00,,,0.00,Wunderground v.1.15,2013-02-02 17:54:00,
2013-02-02 12:59:00,27.0,5.3,30.09,SW,232,0.0,1.0,39,0.00,,,0.00,Wunderground v.1.15,2013-02-02 17:59:00,
2013-02-02 13:04:00,27.0,4.1,30.09,ESE,103,1.0,1.0,37,0.00,,,0.00,Wunderground v.1.15,2013-02-02 18:04:00,
2013-02-02 13:14:00,26.9,5.2,30.08,South,188,1.0,1.0,39,0.00,,,0.00,Wunderground v.1.15,2013-02-02 18:14:00,
2013-02-02 13:19:00,27.2,3.7,30.08,SW,226,0.0,1.0,36,0.00,,,0.00,Wunderground v.1.15,2013-02-02 18:19:00,
2013-02-02 13:24:00,27.6,4.7,30.08,West,277,0.0,2.0,37,0.00,,,0.00,Wunderground v.1.15,2013-02-02 18:24:00,
2013-02-02 13:29:00,27.6,4.7,30.08,West,272,0.0,1.0,37,0.00,,,0.00,Wunderground v.1.15,2013-02-02 18:29:00,
2013-02-02 13:34:00,27.6,2.8,30.08,NNE,14,0.0,1.0,34,0.00,,,0.00,Wunderground v.1.15,2013-02-02 18:34:00,
2013-02-02 13:44:00,27.0,4.7,30.07,SW,232,0.0,1.0,38,0.00,,,0.00,Wunderground v.1.15,2013-02-02 18:44:00,
2013-02-02 13:49:00,27.0,5.3,30.07,SW,232,0.0,2.0,39,0.00,,,0.00,Wunderground v.1.15,2013-02-02 18:49:00,
2013-02-02 13:54:00,27.6,5.3,30.07,SW,222,0.0,3.0,38,0.00,,,0.00,Wunderground v.1.15,2013-02-02 18:54:00,
2013-02-02 13:59:00,27.6,4.7,30.07,SW,234,1.0,5.0,37,0.00,,,0.00,Wunderground v.1.15,2013-02-02 18:59:00,
2013-02-02 14:04:00,27.6,5.8,30.07,West,261,1.0,5.0,39,0.00,,,0.00,Wunderground v.1.15,2013-02-02 19:04:00,
2013-02-02 14:09:00,27.5,5.7,30.07,WSW,239,1.0,4.0,39,0.00,,,0.00,Wunderground v.1.15,2013-02-02 19:09:00,
2013-02-02 14:19:00,27.2,5.5,30.06,West,260,1.0,1.0,39,0.00,,,0.00,Wunderground v.1.15,2013-02-02 19:19:00,
2013-02-02 14:24:00,27.2,6.0,30.06,NNE,17,0.0,1.0,40,0.00,,,0.00,Wunderground v.1.15,2013-02-02 19:24:00,
2013-02-02 14:29:00,27.0,5.3,30.06,SW,222,1.0,1.0,39,0.00,,,0.00,Wunderground v.1.15,2013-02-02 19:29:00,
2013-02-02 14:35:00,27.0,5.3,30.06,SW,224,0.0,1.0,39,0.00,,,0.00,Wunderground v.1.15,2013-02-02 19:35:00,
2013-02-02 14:40:00,27.2,5.5,30.06,WSW,251,0.0,1.0,39,0.00,,,0.00,Wunderground v.1.15,2013-02-02 19:40:00,
2013-02-02 14:50:00,27.3,5.0,30.06,SW,234,1.0,1.0,38,0.00,,,0.00,Wunderground v.1.15,2013-02-02 19:50:00,
2013-02-02 14:55:00,27.2,6.0,30.06,SW,217,1.0,1.0,40,0.00,,,0.00,Wunderground v.1.15,2013-02-02 19:55:00,
2013-02-02 15:00:00,27.2,6.0,30.05,SW,236,0.0,1.0,40,0.00,,,0.00,Wunderground v.1.15,2013-02-02 20:00:00,
2013-02-02 15:05:00,27.5,7.4,30.05,SW,236,0.0,1.0,42,0.00,,,0.00,Wunderground v.1.15,2013-02-02 20:05:00,
2013-02-02 15:10:00,27.6,7.5,30.05,WSW,239,0.0,1.0,42,0.00,,,0.00,Wunderground v.1.15,2013-02-02 20:10:00,
2013-02-02 15:19:00,27.6,6.4,30.04,SW,224,0.0,1.0,40,0.00,,,0.00,Wunderground v.1.15,2013-02-02 20:19:00,
2013-02-02 15:24:00,27.5,6.8,30.04,SW,232,0.0,1.0,41,0.00,,,0.00,Wunderground v.1.15,2013-02-02 20:24:00,
2013-02-02 15:29:00,27.5,6.3,30.04,WSW,239,0.0,1.0,40,0.00,,,0.00,Wunderground v.1.15,2013-02-02 20:29:00,
2013-02-02 15:34:00,27.3,6.1,30.04,SW,220,0.0,1.0,40,0.00,,,0.00,Wunderground v.1.15,2013-02-02 20:34:00,
2013-02-02 15:39:00,27.5,6.8,30.04,SW,220,0.0,1.0,41,0.00,,,0.00,Wunderground v.1.15,2013-02-02 20:39:00,
2013-02-02 15:44:00,27.5,7.4,30.04,South,176,0.0,1.0,42,0.00,,,0.00,Wunderground v.1.15,2013-02-02 20:44:00,
2013-02-02 15:49:00,27.5,7.4,30.04,WSW,239,0.0,1.0,42,0.00,,,0.00,Wunderground v.1.15,2013-02-02 20:49:00,
2013-02-02 15:59:00,27.3,6.7,30.03,WSW,258,0.0,1.0,41,0.00,,,0.00,Wunderground v.1.15,2013-02-02 20:59:00,
2013-02-02 16:04:00,27.3,6.7,30.03,SW,222,0.0,1.0,41,0.00,,,0.00,Wunderground v.1.15,2013-02-02 21:04:00,
2013-02-02 16:09:00,27.3,7.2,30.03,WSW,246,0.0,1.0,42,0.00,,,0.00,Wunderground v.1.15,2013-02-02 21:09:00,
2013-02-02 16:14:00,27.3,7.2,30.03,SW,232,0.0,1.0,42,0.00,,,0.00,Wunderground v.1.15,2013-02-02 21:14:00,
2013-02-02 16:19:00,27.3,6.7,30.03,SW,232,0.0,1.0,41,0.00,,,0.00,Wunderground v.1.15,2013-02-02 21:19:00,
2013-02-02 16:29:00,27.2,7.1,30.02,SW,236,0.0,1.0,42,0.00,,,0.00,Wunderground v.1.15,2013-02-02 21:29:00,
2013-02-02 16:34:00,27.2,7.1,30.02,WSW,237,0.0,1.0,42,0.00,,,0.00,Wunderground v.1.15,2013-02-02 21:34:00,
2013-02-02 16:39:00,27.0,6.9,30.02,WSW,237,0.0,1.0,42,0.00,,,0.00,Wunderground v.1.15,2013-02-02 21:39:00,
2013-02-02 16:44:00,27.0,6.9,30.02,SSW,203,0.0,1.0,42,0.00,,,0.00,Wunderground v.1.15,2013-02-02 21:44:00,
2013-02-02 16:49:00,27.0,6.9,30.02,SSW,203,0.0,1.0,42,0.00,,,0.00,Wunderground v.1.15,2013-02-02 21:49:00,
2013-02-02 16:54:00,27.0,7.4,30.02,SSW,203,0.0,1.0,43,0.00,,,0.00,Wunderground v.1.15,2013-02-02 21:54:00,
2013-02-02 17:04:00,26.9,7.9,30.02,SSW,203,0.0,1.0,44,0.00,,,0.00,Wunderground v.1.15,2013-02-02 22:04:00,
2013-02-02 17:09:00,26.7,7.2,30.02,SSW,203,0.0,1.0,43,0.00,,,0.00,Wunderground v.1.15,2013-02-02 22:09:00,
2013-02-02 17:15:00,26.7,7.7,30.02,SSW,203,0.0,1.0,44,0.00,,,0.00,Wunderground v.1.15,2013-02-02 22:15:00,
2013-02-02 17:20:00,26.7,7.7,30.02,SSW,203,0.0,1.0,44,0.00,,,0.00,Wunderground v.1.15,2013-02-02 22:20:00,
2013-02-02 17:25:00,26.6,7.6,30.02,SSW,203,0.0,1.0,44,0.00,,,0.00,Wunderground v.1.15,2013-02-02 22:25:00,
2013-02-02 17:35:00,26.4,7.4,30.02,SSW,203,0.0,1.0,44,0.00,,,0.00,Wunderground v.1.15,2013-02-02 22:35:00,
2013-02-02 17:40:00,26.4,7.9,30.02,SSW,203,0.0,1.0,45,0.00,,,0.00,Wunderground v.1.15,2013-02-02 22:40:00,
2013-02-02 17:45:00,26.3,7.8,30.02,SSW,203,0.0,1.0,45,0.00,,,0.00,Wunderground v.1.15,2013-02-02 22:45:00,
2013-02-02 17:50:00,26.3,7.8,30.02,SSW,203,0.0,1.0,45,0.00,,,0.00,Wunderground v.1.15,2013-02-02 22:50:00,
2013-02-02 17:59:00,26.1,7.6,30.02,SSW,203,0.0,1.0,45,0.00,,,0.00,Wunderground v.1.15,2013-02-02 22:59:00,
2013-02-02 18:05:00,26.1,8.1,30.02,SSW,203,0.0,1.0,46,0.00,,,0.00,Wunderground v.1.15,2013-02-02 23:05:00,
2013-02-02 18:10:00,26.1,8.1,30.02,SSW,203,0.0,1.0,46,0.00,,,0.00,Wunderground v.1.15,2013-02-02 23:10:00,
2013-02-02 18:15:00,26.1,8.6,30.02,SSW,203,0.0,1.0,47,0.00,,,0.00,Wunderground v.1.15,2013-02-02 23:15:00,
2013-02-02 18:24:00,26.0,8.0,30.02,SSW,203,0.0,1.0,46,0.00,,,0.00,Wunderground v.1.15,2013-02-02 23:24:00,
2013-02-02 18:29:00,26.0,8.5,30.02,SSW,203,0.0,1.0,47,0.00,,,0.00,Wunderground v.1.15,2013-02-02 23:29:00,
2013-02-02 18:34:00,26.0,8.5,30.02,SSW,203,0.0,1.0,47,0.00,,,0.00,Wunderground v.1.15,2013-02-02 23:34:00,
2013-02-02 18:44:00,26.0,9.9,30.01,SSW,203,0.0,1.0,50,0.00,,,0.00,Wunderground v.1.15,2013-02-02 23:44:00,
2013-02-02 18:49:00,26.0,9.4,30.01,SSW,203,0.0,1.0,49,0.00,,,0.00,Wunderground v.1.15,2013-02-02 23:49:00,
2013-02-02 18:54:00,26.0,10.3,30.01,SSW,203,0.0,1.0,51,0.00,,,0.00,Wunderground v.1.15,2013-02-02 23:54:00,
2013-02-02 18:59:00,26.0,9.9,30.01,SSW,203,0.0,1.0,50,0.00,,,0.00,Wunderground v.1.15,2013-02-02 23:59:00,
2013-02-02 19:04:00,25.8,10.1,30.01,SSW,203,0.0,1.0,51,0.00,,,0.00,Wunderground v.1.15,2013-02-03 00:04:00,
2013-02-02 19:14:00,25.8,10.1,30.01,SSW,203,0.0,1.0,51,0.00,,,0.00,Wunderground v.1.15,2013-02-03 00:14:00,
2013-02-02 19:19:00,25.8,9.7,30.01,SSW,203,0.0,1.0,50,0.00,,,0.00,Wunderground v.1.15,2013-02-03 00:19:00,
2013-02-02 19:24:00,25.7,9.2,30.01,SSW,203,0.0,1.0,49,0.00,,,0.00,Wunderground v.1.15,2013-02-03 00:24:00,
2013-02-02 19:29:00,25.7,8.7,30.01,SSW,203,0.0,1.0,48,0.00,,,0.00,Wunderground v.1.15,2013-02-03 00:29:00,
2013-02-02 19:34:00,25.7,9.2,30.01,SSW,203,0.0,1.0,49,0.00,,,0.00,Wunderground v.1.15,2013-02-03 00:34:00,
2013-02-02 19:39:00,25.7,9.2,30.01,SSW,203,0.0,1.0,49,0.00,,,0.00,Wunderground v.1.15,2013-02-03 00:39:00,
2013-02-02 19:49:00,25.7,9.2,30.01,SSW,203,0.0,1.0,49,0.00,,,0.00,Wunderground v.1.15,2013-02-03 00:49:00,
2013-02-02 19:54:00,25.6,9.1,30.01,SSW,203,0.0,1.0,49,0.00,,,0.00,Wunderground v.1.15,2013-02-03 00:54:00,
2013-02-02 20:00:00,25.6,9.1,30.01,SSW,203,0.0,1.0,49,0.00,,,0.00,Wunderground v.1.15,2013-02-03 01:00:00,
2013-02-02 20:05:00,25.6,8.6,30.01,SSW,203,0.0,1.0,48,0.00,,,0.00,Wunderground v.1.15,2013-02-03 01:05:00,
2013-02-02 20:10:00,25.6,8.6,30.01,SSW,203,0.0,1.0,48,0.00,,,0.00,Wunderground v.1.15,2013-02-03 01:10:00,
2013-02-02 20:20:00,25.6,10.0,30.01,SSW,203,0.0,1.0,51,0.00,,,0.00,Wunderground v.1.15,2013-02-03 01:20:00,
2013-02-02 20:25:00,25.6,10.4,30.01,SSW,203,0.0,1.0,52,0.00,,,0.00,Wunderground v.1.15,2013-02-03 01:25:00,
2013-02-02 20:30:00,25.6,10.0,30.01,SSW,203,0.0,1.0,51,0.00,,,0.00,Wunderground v.1.15,2013-02-03 01:30:00,
2013-02-02 20:39:00,25.6,10.4,30.01,SSW,203,0.0,1.0,52,0.00,,,0.00,Wunderground v.1.15,2013-02-03 01:39:00,
2013-02-02 20:44:00,25.4,9.8,30.01,SSW,203,0.0,1.0,51,0.00,,,0.00,Wunderground v.1.15,2013-02-03 01:44:00,
2013-02-02 20:49:00,25.4,9.3,30.01,SSW,203,0.0,1.0,50,0.00,,,0.00,Wunderground v.1.15,2013-02-03 01:49:00,
2013-02-02 20:54:00,25.4,9.3,30.01,SSW,203,0.0,1.0,50,0.00,,,0.00,Wunderground v.1.15,2013-02-03 01:54:00,
2013-02-02 20:59:00,25.4,9.8,30.01,SSW,203,0.0,1.0,51,0.00,,,0.00,Wunderground v.1.15,2013-02-03 01:59:00,
2013-02-02 21:04:00,25.3,10.1,30.01,SSW,203,0.0,1.0,52,0.00,,,0.00,Wunderground v.1.15,2013-02-03 02:04:00,
2013-02-02 21:09:00,25.3,9.7,30.01,SW,232,0.0,1.0,51,0.00,,,0.00,Wunderground v.1.15,2013-02-03 02:09:00,
2013-02-02 21:14:00,25.3,9.2,30.01,SW,232,0.0,1.0,50,0.00,,,0.00,Wunderground v.1.15,2013-02-03 02:14:00,
2013-02-02 21:19:00,25.3,9.2,30.01,SW,232,0.0,1.0,50,0.00,,,0.00,Wunderground v.1.15,2013-02-03 02:19:00,
2013-02-02 21:29:00,25.4,8.4,30.01,SE,144,0.0,1.0,48,0.00,,,0.00,Wunderground v.1.15,2013-02-03 02:29:00,
2013-02-02 21:34:00,25.4,8.9,30.01,WSW,256,0.0,1.0,49,0.00,,,0.00,Wunderground v.1.15,2013-02-03 02:34:00,
2013-02-02 21:39:00,25.6,9.1,30.01,SW,234,0.0,1.0,49,0.00,,,0.00,Wunderground v.1.15,2013-02-03 02:39:00,
2013-02-02 21:44:00,25.6,8.6,30.01,SW,234,0.0,1.0,48,0.00,,,0.00,Wunderground v.1.15,2013-02-03 02:44:00,
2013-02-02 21:49:00,25.6,8.6,30.01,SW,234,0.0,1.0,48,0.00,,,0.00,Wunderground v.1.15,2013-02-03 02:49:00,
2013-02-02 21:59:00,25.7,8.2,30.00,SW,234,0.0,1.0,47,0.00,,,0.00,Wunderground v.1.15,2013-02-03 02:59:00,
2013-02-02 22:04:00,25.7,8.2,30.00,WSW,240,0.0,1.0,47,0.00,,,0.00,Wunderground v.1.15,2013-02-03 03:04:00,
2013-02-02 22:09:00,25.8,8.3,30.00,SSE,158,0.0,1.0,47,0.00,,,0.00,Wunderground v.1.15,2013-02-03 03:09:00,
2013-02-02 22:14:00,25.8,8.3,30.00,SW,232,0.0,1.0,47,0.00,,,0.00,Wunderground v.1.15,2013-02-03 03:14:00,
2013-02-02 22:20:00,26.0,8.5,30.00,SW,232,0.0,1.0,47,0.00,,,0.00,Wunderground v.1.15,2013-02-03 03:20:00,
2013-02-02 22:25:00,26.0,9.0,30.00,SW,232,0.0,1.0,48,0.00,,,0.00,Wunderground v.1.15,2013-02-03 03:25:00,
2013-02-02 22:34:00,26.0,9.0,30.00,SW,232,0.0,1.0,48,0.00,,,0.00,Wunderground v.1.15,2013-02-03 03:34:00,
2013-02-02 22:40:00,26.0,9.0,30.00,SW,232,0.0,1.0,48,0.00,,,0.00,Wunderground v.1.15,2013-02-03 03:40:00,
2013-02-02 22:45:00,26.0,9.0,30.00,SW,232,0.0,1.0,48,0.00,,,0.00,Wunderground v.1.15,2013-02-03 03:45:00,
2013-02-02 22:50:00,25.8,8.8,30.00,SW,220,0.0,1.0,48,0.00,,,0.00,Wunderground v.1.15,2013-02-03 03:50:00,
2013-02-02 22:55:00,25.8,9.2,30.00,SW,229,0.0,1.0,49,0.00,,,0.00,Wunderground v.1.15,2013-02-03 03:55:00,
2013-02-02 23:05:00,25.8,9.2,30.00,WSW,246,0.0,1.0,49,0.00,,,0.00,Wunderground v.1.15,2013-02-03 04:05:00,
2013-02-02 23:10:00,25.8,9.2,30.00,WSW,246,0.0,1.0,49,0.00,,,0.00,Wunderground v.1.15,2013-02-03 04:10:00,
2013-02-02 23:15:00,25.8,9.2,30.00,SW,229,0.0,1.0,49,0.00,,,0.00,Wunderground v.1.15,2013-02-03 04:15:00,
2013-02-02 23:24:00,25.8,9.7,30.00,SW,234,0.0,1.0,50,0.00,,,0.00,Wunderground v.1.15,2013-02-03 04:24:00,
2013-02-02 23:29:00,25.8,10.1,30.00,SW,234,0.0,1.0,51,0.00,,,0.00,Wunderground v.1.15,2013-02-03 04:29:00,
2013-02-02 23:35:00,25.8,10.1,30.00,SW,234,0.0,1.0,51,0.00,,,0.00,Wunderground v.1.15,2013-02-03 04:35:00,
2013-02-02 23:44:00,25.7,10.0,30.00,SSW,212,0.0,1.0,51,0.00,,,0.00,Wunderground v.1.15,2013-02-03 04:44:00,
2013-02-02 23:49:00,25.7,10.5,30.00,SW,232,0.0,1.0,52,0.00,,,0.00,Wunderground v.1.15,2013-02-03 04:49:00,
2013-02-02 23:54:00,25.7,10.5,30.00,SW,232,0.0,1.0,52,0.00,,,0.00,Wunderground v.1.15,2013-02-03 04:54:00,
2013-02-02 23:59:00,25.6,10.4,30.00,SW,232,0.0,1.0,52,0.00,,,0.00,Wunderground v.1.15,2013-02-03 04:59:00,